period_start,C,m1,H,J0,J1,J2,J3,J4,J5,JA,JB,JC,JD,JJ,JK,JN,#
2015-12-13 00:01:11,0.06,4.88,0.00,20.45,24.77,28.59,14.63,50.38,1012.23,2039.99,2037.82,2106.60,2350.97,599.93,598.53,26.38,0000 0000 0000 0000 000000
2015-12-13 00:06:12,0.06,4.88,0.00,20.45,24.77,28.50,14.64,50.41,1012.27,2039.99,2037.00,2106.00,2350.15,599.88,598.63,26.43,0000 0000 0000 0000 000000
2015-12-13 00:11:13,0.10,4.89,0.00,20.42,24.76,28.52,14.70,50.38,1012.32,2039.99,2036.16,2105.25,2349.48,600.42,599.06,26.48,0000 0000 0000 0000 000000
2015-12-13 00:16:15,0.05,4.89,0.00,20.39,24.75,28.52,14.73,50.52,1012.32,2039.99,2035.32,2104.83,2348.89,600.04,598.80,26.53,0000 0000 0000 0000 000000
2015-12-13 00:21:16,0.09,4.89,0.00,20.39,24.73,28.51,14.77,50.56,1012.40,2039.99,2034.51,2104.06,2348.08,599.78,598.54,26.58,0000 0000 0000 0000 000000
2015-12-13 00:26:18,0.09,4.90,0.00,20.39,24.72,28.51,14.67,50.56,1012.31,2039.99,2033.64,2103.45,2347.38,600.08,598.92,26.63,0000 0000 0000 0000 000000
2015-12-13 00:31:19,0.06,4.90,0.00,20.39,24.72,28.50,14.71,50.35,1012.24,2039.99,2032.76,2102.86,2346.64,599.87,598.65,26.68,0000 0000 0000 0000 000000
2015-12-13 00:36:21,0.11,4.91,0.00,20.38,24.70,28.44,14.68,50.43,1012.23,2039.99,2031.65,2101.97,2345.68,600.07,598.92,26.73,0000 0000 0000 0000 000000
2015-12-13 00:41:22,0.10,4.91,0.00,20.34,24.70,28.45,14.66,50.42,1012.22,2039.99,2030.59,2101.07,2344.75,599.84,598.68,26.78,0000 0000 0000 0000 000000
2015-12-13 00:46:23,0.11,4.92,0.00,20.32,24.68,28.43,14.72,50.42,1012.22,2040.00,2029.50,2100.21,2343.66,600.10,599.02,26.83,0000 0000 0000 0000 000000
2015-12-13 00:51:24,0.10,4.92,0.00,20.29,24.67,28.41,14.73,50.37,1012.22,2040.01,2028.27,2099.44,2342.78,599.83,598.75,26.88,0000 0000 0000 0000 000000
2015-12-13 00:56:25,0.07,4.93,0.00,20.26,24.65,28.44,14.64,50.35,1012.22,2040.01,2027.40,2098.82,2342.01,599.66,598.67,26.93,0000 0000 0000 0000 000000
2015-12-13 01:01:27,0.09,4.93,0.00,20.24,24.64,28.38,14.69,50.36,1012.23,2040.02,2026.33,2098.05,2341.16,600.04,599.05,26.98,0000 0000 0000 0000 000000
2015-12-13 01:06:28,0.11,4.94,0.00,20.22,24.62,28.39,14.68,50.38,1012.24,2040.08,2025.29,2097.46,2340.32,599.97,599.18,27.03,0000 0000 0000 0000 000000
2015-12-13 01:11:29,0.08,4.94,0.00,20.19,24.61,28.38,14.70,50.38,1012.27,2040.09,2024.22,2096.79,2339.49,599.67,599.01,27.08,0000 0000 0000 0000 000000
2015-12-13 01:16:31,0.11,4.95,0.00,20.20,24.60,28.36,14.69,50.40,1012.23,2040.13,2023.14,2095.86,2338.59,600.15,599.32,27.13,0000 0000 0000 0000 000000
2015-12-13 01:21:32,0.14,4.96,0.00,20.19,24.57,28.38,14.69,50.42,1012.23,2040.32,2021.91,2094.87,2337.55,599.82,598.91,27.18,0000 0000 0000 0000 000000
2015-12-13 01:26:33,0.15,4.96,0.00,20.19,24.56,28.32,14.71,50.40,1012.22,2040.69,2020.79,2093.99,2336.54,599.95,599.04,27.23,0000 0000 0000 0000 000000
2015-12-13 01:31:34,0.10,4.97,0.00,20.13,24.55,28.31,14.70,50.34,1012.22,2040.72,2019.75,2093.11,2335.54,599.74,598.88,27.28,0000 0000 0000 0000 000000
2015-12-13 01:36:35,0.11,4.97,0.00,20.11,24.53,28.29,14.61,50.42,1012.22,2040.84,2018.77,2092.36,2334.78,599.74,599.12,27.33,0000 0000 0000 0000 000000
2015-12-13 01:41:36,0.08,4.98,0.00,20.08,24.51,28.27,14.68,50.47,1012.22,2040.93,2017.80,2091.79,2333.98,600.12,599.54,27.38,0000 0000 0000 0000 000000
2015-12-13 01:46:38,0.09,4.99,0.00,20.08,24.50,28.29,14.70,50.37,1012.22,2040.98,2016.82,2091.03,2333.09,600.05,599.44,27.43,0000 0000 0000 0000 000000
2015-12-13 01:51:39,0.10,4.99,0.00,20.04,24.47,28.24,14.69,50.40,1012.22,2040.99,2015.94,2090.19,2332.26,600.02,599.37,27.48,0000 0000 0000 0000 000000
2015-12-13 01:56:41,0.09,4.99,0.00,20.02,24.46,28.19,14.75,50.43,1012.22,2040.99,2014.93,2089.63,2331.58,600.23,599.77,27.53,0000 0000 0000 0000 000000
2015-12-13 02:01:42,0.07,5.00,0.00,20.02,24.44,28.20,14.75,50.56,1012.23,2040.99,2013.91,2088.98,2330.77,600.05,599.54,27.58,0000 0000 0000 0000 000000
2015-12-13 02:06:43,0.09,5.01,0.00,19.99,24.42,28.18,14.78,50.57,1012.26,2040.99,2012.96,2088.16,2329.96,600.20,599.79,27.63,0000 0000 0000 0000 000000
2015-12-13 02:11:45,0.09,5.01,0.00,19.99,24.40,28.16,14.68,50.47,1012.27,2041.00,2012.07,2087.66,2329.13,600.09,599.63,27.68,0000 0000 0000 0000 000000
2015-12-13 02:16:46,0.08,5.01,0.00,19.97,24.38,28.16,14.80,50.58,1012.33,2041.00,2011.15,2086.94,2328.27,600.36,600.01,27.73,0000 0000 0000 0000 000000
2015-12-13 02:21:47,0.09,5.02,0.00,19.96,24.36,28.13,14.75,50.48,1012.35,2041.02,2010.21,2086.12,2327.65,600.07,599.82,27.78,0000 0000 0000 0000 000000
2015-12-13 02:26:48,0.08,5.02,0.00,19.94,24.34,28.09,14.69,50.42,1012.26,2041.04,2009.38,2085.66,2326.89,599.74,599.40,27.83,0000 0000 0000 0000 000000
2015-12-13 02:31:49,0.08,5.03,0.00,19.94,24.32,28.06,14.72,50.42,1012.24,2041.08,2008.38,2085.00,2326.05,600.14,599.86,27.88,0000 0000 0000 0000 000000
2015-12-13 02:36:50,0.12,5.03,0.00,19.93,24.30,28.05,14.64,50.34,1012.23,2041.17,2007.54,2084.22,2325.21,599.82,599.51,27.93,0000 0000 0000 0000 000000
2015-12-13 02:41:52,0.08,5.04,0.00,19.91,24.29,28.04,14.71,50.38,1012.24,2041.30,2006.67,2083.77,2324.67,600.21,599.82,27.98,0000 0000 0000 0000 000000
2015-12-13 02:46:53,0.10,5.04,0.00,19.88,24.27,28.03,14.73,50.45,1012.30,2041.55,2005.77,2083.04,2323.95,600.01,599.83,28.03,0000 0000 0000 0000 000000
2015-12-13 02:51:54,0.12,5.05,0.00,19.87,24.25,28.02,14.67,50.30,1012.43,2041.91,2004.99,2082.55,2323.14,599.75,599.68,28.08,0000 0000 0000 0000 000000
2015-12-13 02:56:55,0.07,5.05,0.00,19.84,24.23,28.00,14.71,50.39,1012.42,2041.97,2004.13,2082.00,2322.65,599.87,599.79,28.13,0000 0000 0000 0000 000000
2015-12-13 03:01:56,0.09,5.06,0.00,19.82,24.21,27.97,14.65,50.44,1012.36,2041.98,2003.26,2081.29,2321.95,600.09,600.11,28.18,0000 0000 0000 0000 000000
2015-12-13 03:06:58,0.06,5.06,0.00,19.81,24.19,27.96,14.70,50.38,1012.55,2041.98,2002.39,2080.91,2321.11,600.00,600.13,28.23,0000 0000 0000 0000 000000
2015-12-13 03:11:59,0.09,5.06,0.00,19.80,24.17,27.90,14.72,50.28,1012.66,2041.99,2001.64,2080.09,2320.63,599.89,600.15,28.28,0000 0000 0000 0000 000000
2015-12-13 03:17:00,0.06,5.07,0.00,19.77,24.15,27.92,14.74,50.49,1012.67,2041.99,2000.79,2079.67,2319.99,599.67,599.95,28.33,0000 0000 0000 0000 000000
2015-12-13 03:22:01,0.06,5.07,0.00,19.73,24.13,27.94,14.70,50.38,1012.61,2041.99,2000.00,2079.01,2319.22,600.01,600.37,28.38,0000 0000 0000 0000 000000
2015-12-13 03:27:02,0.09,5.08,0.00,19.70,24.11,27.90,14.73,50.39,1012.52,2041.99,1999.16,2078.46,2318.72,600.07,600.47,28.43,0000 0000 0000 0000 000000
2015-12-13 03:32:04,0.06,5.08,0.00,19.69,24.09,27.89,14.72,50.41,1012.57,2042.01,1998.29,2077.97,2318.00,600.12,600.60,28.48,0000 0000 0000 0000 000000
2015-12-13 03:37:05,0.11,5.08,0.00,19.67,24.07,27.87,14.75,50.39,1012.70,2042.03,1997.48,2077.16,2317.20,600.15,600.67,28.53,0000 0000 0000 0000 000000
2015-12-13 03:42:06,0.05,5.09,0.00,19.66,24.05,27.82,14.71,50.50,1012.70,2042.04,1996.73,2076.87,2316.69,600.12,600.70,28.58,0000 0000 0000 0000 000000
2015-12-13 03:47:08,0.09,5.09,0.00,19.66,24.04,27.82,14.69,50.40,1012.68,2042.08,1995.91,2076.07,2316.01,599.98,600.40,28.63,0000 0000 0000 0000 000000
2015-12-13 03:52:09,0.10,5.10,0.00,19.64,24.02,27.83,14.69,50.37,1012.71,2042.17,1995.04,2075.60,2315.34,599.91,600.48,28.68,0000 0000 0000 0000 000000
2015-12-13 03:57:10,0.11,5.10,0.00,19.61,24.00,27.79,14.67,50.46,1012.71,2042.48,1994.17,2074.99,2314.67,599.62,600.21,28.73,0000 0000 0000 0000 000000
2015-12-13 04:02:12,0.12,5.11,0.00,19.58,23.98,27.75,14.82,50.51,1012.71,2042.83,1993.45,2074.28,2314.03,600.00,600.64,28.78,0000 0000 0000 0000 000000
2015-12-13 04:07:13,0.05,5.11,0.00,19.57,23.97,27.77,14.73,49.97,1012.71,2042.96,1992.80,2073.99,2313.35,599.42,600.17,28.83,0000 0000 0000 0000 000000
2015-12-13 04:12:15,0.08,5.12,0.00,19.55,23.95,27.74,14.81,49.73,1012.71,2042.97,1992.01,2073.31,2312.86,600.68,601.26,28.88,0000 0000 0000 0000 000000
2015-12-13 04:17:16,0.07,5.12,0.00,19.54,23.93,27.76,14.74,49.77,1012.71,2042.98,1991.14,2072.91,2312.07,599.87,600.63,28.93,0000 0000 0000 0000 000000
2015-12-13 04:22:17,0.10,5.12,0.00,19.52,23.92,27.74,14.75,49.92,1012.65,2042.98,1990.36,2072.14,2311.42,600.53,601.30,28.98,0000 0000 0000 0000 000000
2015-12-13 04:27:18,0.05,5.13,0.00,19.50,23.90,27.72,14.66,50.13,1012.61,2042.99,1989.62,2071.83,2310.95,599.90,600.79,29.03,0000 0000 0000 0000 000000
2015-12-13 04:32:20,0.07,5.13,0.00,19.49,23.88,27.73,14.78,50.10,1012.65,2042.99,1988.87,2071.07,2310.13,600.21,601.07,29.08,0000 0000 0000 0000 000000
2015-12-13 04:37:21,0.08,5.13,0.00,19.47,23.86,27.69,14.79,50.17,1012.66,2042.99,1988.05,2070.62,2309.67,600.45,601.32,29.13,0000 0000 0000 0000 000000
2015-12-13 04:42:22,0.06,5.14,0.00,19.46,23.85,27.69,14.72,50.14,1012.63,2043.00,1987.31,2070.02,2309.01,599.89,600.91,29.18,0000 0000 0000 0000 000000
2015-12-13 04:47:24,0.11,5.14,0.00,19.44,23.82,27.63,14.80,50.35,1012.69,2043.01,1986.44,2069.40,2308.30,600.22,601.20,29.23,0000 0000 0000 0000 000000
2015-12-13 04:52:25,0.04,5.15,0.00,19.41,23.80,27.59,14.84,50.48,1012.71,2043.03,1985.71,2068.91,2307.75,600.47,601.46,29.28,0000 0000 0000 0000 000000
2015-12-13 04:57:26,0.08,5.15,0.00,19.37,23.78,27.55,14.77,50.38,1012.71,2043.03,1984.99,2068.14,2307.03,599.85,600.97,29.33,0000 0000 0000 0000 000000
2015-12-13 05:02:27,0.06,5.15,0.00,19.34,23.76,27.54,14.76,50.37,1012.71,2043.11,1984.17,2067.98,2306.67,600.08,601.21,29.38,0000 0000 0000 0000 000000
2015-12-13 05:07:29,0.13,5.16,0.00,19.35,23.74,27.51,14.71,50.32,1012.71,2043.34,1983.71,2067.29,2306.03,599.92,600.94,29.43,0000 0000 0000 0000 000000
2015-12-13 05:12:30,0.08,5.16,0.00,19.34,23.71,27.50,14.75,50.35,1012.71,2043.64,1983.00,2066.98,2305.33,600.11,601.33,29.48,0000 0000 0000 0000 000000
2015-12-13 05:17:31,0.10,5.17,0.00,19.31,23.69,27.51,14.80,50.43,1012.73,2043.85,1982.17,2066.23,2304.98,600.22,601.44,29.53,0000 0000 0000 0000 000000
2015-12-13 05:22:33,0.06,5.17,0.00,19.26,23.67,27.43,14.83,50.46,1012.76,2043.97,1981.51,2065.97,2304.28,600.21,601.66,29.58,0000 0000 0000 0000 000000
2015-12-13 05:27:34,0.07,5.18,0.00,19.26,23.65,27.37,14.82,50.18,1012.91,2043.96,1980.86,2065.27,2303.78,600.72,602.07,29.64,0000 0000 0000 0000 000000
2015-12-13 05:32:35,0.05,5.18,0.00,19.23,23.62,27.36,14.81,50.38,1013.10,2043.98,1980.05,2064.98,2303.05,600.17,601.81,29.69,0000 0000 0000 0000 000000
2015-12-13 05:37:37,0.07,5.18,0.00,19.23,23.60,27.41,14.84,50.35,1013.19,2043.99,1979.47,2064.43,2302.87,600.20,601.83,29.74,0000 0000 0000 0000 000000
2015-12-13 05:42:38,0.04,5.19,0.00,19.23,23.57,27.36,14.73,50.44,1013.20,2043.99,1978.86,2064.00,2302.10,599.74,601.43,29.79,0000 0000 0000 0000 000000
2015-12-13 05:47:39,0.07,5.19,0.00,19.19,23.55,27.38,14.75,50.38,1013.20,2044.00,1978.06,2063.57,2301.93,599.79,601.70,29.84,0000 0000 0000 0000 000000
2015-12-13 05:52:40,0.07,5.19,0.00,19.17,23.52,27.29,14.69,50.39,1013.20,2044.02,1977.32,2063.02,2301.13,599.69,601.52,29.89,0000 0000 0000 0000 000000
2015-12-13 05:57:41,0.08,5.19,0.00,19.14,23.50,27.29,14.76,50.42,1013.21,2044.04,1976.69,2062.62,2300.64,599.65,601.50,29.94,0000 0000 0000 0000 000000
2015-12-13 06:02:43,0.06,5.20,0.00,19.13,23.47,27.23,14.75,50.42,1013.26,2044.15,1976.02,2062.02,2300.02,600.13,601.97,29.99,0000 0000 0000 0000 000000
2015-12-13 06:07:44,0.09,5.20,0.00,19.12,23.46,27.22,14.79,50.48,1013.36,2044.29,1975.26,2061.72,2299.65,599.90,601.94,30.04,0000 0000 0000 0000 000000
2015-12-13 06:12:45,0.10,5.21,0.00,19.08,23.43,27.21,14.82,50.55,1013.38,2044.55,1974.57,2061.03,2299.01,600.02,602.14,30.09,0000 0000 0000 0000 000000
2015-12-13 06:17:46,0.09,5.21,0.00,19.03,23.41,27.20,14.75,50.64,1013.40,2044.88,1973.93,2060.79,2298.39,599.77,601.99,30.14,0000 0000 0000 0000 000000
2015-12-13 06:22:48,0.07,5.22,0.00,19.04,23.38,27.16,14.83,50.65,1013.23,2044.98,1973.10,2060.05,2297.97,600.21,602.25,30.19,0000 0000 0000 0000 000000
2015-12-13 06:27:49,0.07,5.22,0.00,19.03,23.37,27.17,14.87,50.58,1013.22,2044.98,1972.39,2059.81,2297.25,600.08,601.97,30.24,0000 0000 0000 0000 000000
2015-12-13 06:32:50,0.05,5.23,0.00,19.01,23.35,27.16,14.84,50.54,1013.21,2044.97,1971.81,2059.05,2296.92,600.30,602.33,30.29,0000 0000 0000 0000 000000
2015-12-13 06:37:51,0.06,5.23,0.00,18.96,23.33,27.14,14.73,50.49,1013.21,2044.99,1971.01,2058.79,2296.13,599.98,602.23,30.34,0000 0000 0000 0000 000000
2015-12-13 06:42:52,0.07,5.23,0.00,18.94,23.31,27.12,14.83,50.63,1013.21,2044.99,1970.17,2058.04,2295.81,600.27,602.59,30.39,0000 0000 0000 0000 000000
2015-12-13 06:47:54,0.05,5.23,0.00,18.92,23.29,27.09,14.82,50.48,1013.21,2044.99,1969.62,2057.90,2295.06,600.02,602.31,30.44,0000 0000 0000 0000 000000
2015-12-13 06:52:55,0.07,5.24,0.00,18.90,23.27,27.09,14.78,50.43,1013.21,2045.01,1968.99,2057.15,2294.74,599.82,602.27,30.49,0000 0000 0000 0000 000000
2015-12-13 06:57:56,0.06,5.24,0.00,18.87,23.24,27.04,14.82,50.50,1013.21,2045.03,1968.18,2056.94,2294.03,599.85,602.25,30.54,0000 0000 0000 0000 000000
2015-12-13 07:02:58,0.10,5.25,0.00,18.85,23.22,27.01,14.80,50.60,1013.23,2045.05,1967.52,2056.21,2293.52,599.96,602.55,30.59,0000 0000 0000 0000 000000
2015-12-13 07:07:59,0.02,5.25,0.00,18.83,23.20,27.00,14.78,50.48,1013.23,2045.06,1966.80,2055.96,2293.00,599.70,602.19,30.64,0000 0000 0000 0000 000000
2015-12-13 07:13:00,0.15,5.25,0.00,18.80,23.18,26.98,14.82,50.36,1013.21,2045.34,1966.04,2055.20,2292.37,599.85,602.47,30.69,0000 0000 0000 0000 000000
2015-12-13 07:18:02,0.07,5.26,0.00,18.78,23.15,26.96,14.80,50.44,1013.22,2045.74,1965.34,2054.99,2291.99,600.22,602.72,30.74,0000 0000 0000 0000 000000
2015-12-13 07:23:03,0.10,5.26,0.00,18.76,23.13,26.92,14.84,50.61,1013.23,2045.91,1964.80,2054.38,2291.40,600.42,603.15,30.79,0000 0000 0000 0000 000000
2015-12-13 07:28:04,0.04,5.27,0.00,18.72,23.11,26.92,14.85,50.58,1013.24,2045.97,1964.01,2054.00,2290.89,600.11,602.85,30.84,0000 0000 0000 0000 000000
2015-12-13 07:33:05,0.10,5.27,0.00,18.69,23.08,26.86,14.82,50.41,1013.32,2045.98,1963.19,2053.50,2290.10,600.24,603.12,30.89,0000 0000 0000 0000 000000
2015-12-13 07:38:07,0.05,5.27,0.00,18.66,23.06,26.88,14.84,50.48,1013.50,2045.99,1962.58,2053.01,2289.78,599.84,602.87,30.94,0000 0000 0000 0000 000000
2015-12-13 07:43:08,0.07,5.28,0.00,18.65,23.03,26.83,14.80,50.41,1013.57,2045.99,1961.93,2052.58,2289.09,600.05,603.21,30.99,0000 0000 0000 0000 000000
2015-12-13 07:48:09,0.05,5.28,0.00,18.65,23.01,26.82,14.84,50.49,1013.65,2045.99,1961.12,2052.02,2288.87,600.24,603.51,31.04,0000 0000 0000 0000 000000
2015-12-13 07:53:10,0.07,5.28,0.00,18.64,22.99,26.76,14.79,50.28,1013.68,2046.00,1960.56,2051.76,2288.08,600.03,603.16,31.09,0000 0000 0000 0000 000000
2015-12-13 07:58:11,0.06,5.29,0.00,18.60,22.97,26.75,14.77,50.56,1013.52,2046.01,1959.90,2051.05,2287.66,599.89,603.09,31.14,0000 0000 0000 0000 000000
2015-12-13 08:03:12,0.06,5.29,0.00,18.55,22.94,26.72,14.82,50.56,1013.31,2046.04,1959.07,2050.76,2287.02,600.37,603.54,31.19,0000 0000 0000 0000 000000
2015-12-13 08:08:14,0.09,5.30,0.00,18.54,22.92,26.72,14.84,50.36,1013.33,2046.08,1958.37,2050.05,2286.44,600.29,603.35,31.24,0000 0000 0000 0000 000000
2015-12-13 08:13:15,0.10,5.30,0.00,18.51,22.90,26.69,14.88,50.48,1013.26,2046.57,1957.79,2049.94,2286.01,600.41,603.66,31.29,0000 0000 0000 0000 000000
2015-12-13 08:18:16,0.09,5.31,0.00,18.48,22.87,26.64,14.84,50.55,1013.26,2046.78,1957.00,2049.18,2285.48,599.94,603.22,31.34,0000 0000 0000 0000 000000
2015-12-13 08:23:17,0.16,5.31,0.00,18.42,22.85,26.63,14.82,50.63,1013.39,2046.88,1955.49,2048.22,2284.27,600.05,603.40,31.39,0000 0000 0000 0000 000000
2015-12-13 08:28:19,0.10,5.32,0.00,18.39,22.82,26.59,14.83,50.39,1013.61,2046.96,1954.62,2047.64,2283.60,600.07,603.66,31.44,0000 0000 0000 0000 000000
2015-12-13 08:33:20,0.07,5.32,0.00,18.39,22.80,26.61,14.80,50.33,1013.66,2046.99,1953.34,2047.01,2282.85,600.04,603.84,31.49,0000 0000 0000 0000 000000
2015-12-13 08:38:22,0.09,5.33,0.00,18.38,22.78,26.57,14.81,50.30,1013.69,2046.99,1952.48,2046.56,2282.02,600.13,603.87,31.54,0000 0000 0000 0000 000000
2015-12-13 08:43:23,0.09,5.33,0.00,18.34,22.75,26.52,14.82,50.36,1013.69,2046.99,1951.47,2045.81,2281.10,599.73,603.34,31.59,0000 0000 0000 0000 000000
2015-12-13 08:48:25,0.10,5.34,0.00,18.31,22.73,26.50,14.84,50.27,1013.69,2046.99,1950.28,2045.02,2280.20,600.09,603.90,31.64,0000 0000 0000 0000 000000
2015-12-13 08:53:26,0.10,5.34,0.00,18.29,22.70,26.46,14.74,50.13,1013.69,2046.99,1949.27,2044.21,2279.73,599.85,603.76,31.69,0000 0000 0000 0000 000000
2015-12-13 08:58:27,0.02,5.35,0.00,18.27,22.68,26.45,14.83,50.32,1013.69,2046.99,1948.87,2043.99,2279.03,599.70,603.67,31.74,0000 0000 0000 0000 000000
2015-12-13 09:03:29,0.09,5.35,0.00,18.24,22.65,26.41,14.81,50.13,1013.69,2046.99,1948.05,2043.50,2278.58,600.28,604.33,31.79,0000 0000 0000 0000 000000
2015-12-13 09:08:30,0.06,5.35,0.00,18.20,22.63,26.37,14.80,50.40,1013.69,2046.99,1947.18,2042.95,2277.96,600.04,604.07,31.84,0000 0000 0000 0000 000000
2015-12-13 09:13:31,0.11,5.36,0.00,18.20,22.61,26.39,14.79,50.30,1013.69,2046.99,1946.33,2042.13,2277.15,600.13,604.20,31.89,0000 0000 0000 0000 000000
2015-12-13 09:18:32,0.08,5.36,0.00,18.17,22.58,26.38,14.84,50.40,1013.69,2047.02,1945.51,2041.71,2276.59,600.08,604.14,31.94,0000 0000 0000 0000 000000
2015-12-13 09:23:34,0.06,5.37,0.00,18.14,22.55,26.35,14.84,50.33,1013.69,2047.02,1944.66,2041.02,2275.90,599.96,604.26,31.99,0000 0000 0000 0000 000000
2015-12-13 09:28:35,0.09,5.37,0.00,18.10,22.53,26.31,14.80,50.13,1013.69,2047.10,1943.94,2040.53,2275.10,600.00,604.27,32.04,0000 0000 0000 0000 000000
2015-12-13 09:33:36,0.10,5.38,0.00,18.06,22.50,26.27,14.75,50.21,1013.69,2047.43,1942.97,2040.00,2274.67,599.51,603.96,32.09,0000 0000 0000 0000 000000
2015-12-13 09:38:37,0.13,5.38,0.00,18.03,22.48,26.25,14.84,50.46,1013.69,2047.81,1942.05,2039.37,2274.02,599.92,604.34,32.14,0000 0000 0000 0000 000000
2015-12-13 09:43:39,0.07,5.39,0.00,18.03,22.45,26.22,14.86,50.42,1013.71,2047.97,1941.35,2039.00,2273.64,600.24,604.70,32.19,0000 0000 0000 0000 000000
2015-12-13 09:48:40,0.06,5.39,0.00,17.98,22.42,26.19,14.87,50.49,1013.72,2047.98,1940.77,2038.54,2273.04,600.22,604.91,32.24,0000 0000 0000 0000 000000
2015-12-13 09:53:41,0.05,5.39,0.00,17.94,22.40,26.14,14.84,50.56,1013.76,2047.99,1940.03,2038.02,2272.72,600.10,604.85,32.29,0000 0000 0000 0000 000000
2015-12-13 09:58:43,0.08,5.40,0.00,17.91,22.37,26.16,14.87,50.42,1013.74,2047.99,1939.28,2037.58,2272.02,600.19,605.05,32.35,0000 0000 0000 0000 000000
2015-12-13 10:03:44,0.05,5.40,0.00,17.88,22.35,26.15,14.86,50.50,1013.79,2048.02,1938.71,2037.01,2271.65,600.22,605.04,32.40,0000 0000 0000 0000 000000
2015-12-13 10:08:45,0.05,5.40,0.00,17.88,22.33,26.10,14.83,50.63,1013.85,2048.04,1937.96,2036.73,2271.01,599.82,604.70,32.45,0000 0000 0000 0000 000000
2015-12-13 10:13:47,0.13,5.41,0.00,17.83,22.30,26.13,14.85,50.56,1013.76,2048.28,1937.11,2036.03,2270.34,600.18,605.01,32.50,0000 0000 0000 0000 000000
2015-12-13 10:18:48,0.11,5.41,0.00,17.83,22.28,26.07,14.92,50.66,1013.81,2048.46,1936.34,2035.62,2269.89,600.20,605.02,32.55,0000 0000 0000 0000 000000
2015-12-13 10:23:50,0.08,5.42,0.00,17.82,22.26,26.03,14.84,50.58,1013.73,2048.78,1935.81,2035.02,2269.08,599.87,604.82,32.60,0000 0000 0000 0000 000000
2015-12-13 10:28:51,0.10,5.42,0.00,17.80,22.24,26.02,14.79,50.38,1013.74,2048.93,1934.98,2034.54,2268.54,600.00,604.97,32.65,0000 0000 0000 0000 000000
2015-12-13 10:33:52,0.05,5.43,0.00,17.76,22.23,25.98,14.86,50.67,1013.95,2048.97,1934.05,2034.00,2267.98,599.70,604.96,32.70,0000 0000 0000 0000 000000
2015-12-13 10:38:53,0.11,5.43,0.00,17.73,22.21,25.98,14.88,50.68,1014.11,2048.97,1933.12,2033.24,2267.17,600.04,605.32,32.75,0000 0000 0000 0000 000000
2015-12-13 10:43:55,0.05,5.44,0.00,17.71,22.19,25.98,14.86,50.77,1014.16,2048.99,1932.31,2032.97,2266.81,600.27,605.68,32.80,0000 0000 0000 0000 000000
2015-12-13 10:48:56,0.09,5.44,0.00,17.68,22.18,25.99,14.87,50.75,1014.17,2048.99,1931.72,2032.23,2266.05,599.99,605.47,32.85,0000 0000 0000 0000 000000
2015-12-13 10:53:57,0.04,5.44,0.00,17.66,22.17,25.96,14.81,50.60,1014.17,2048.99,1931.01,2031.95,2265.42,600.13,605.64,32.90,0000 0000 0000 0000 000000
2015-12-13 10:58:58,0.09,5.45,0.00,17.64,22.15,25.92,14.88,50.59,1014.18,2048.99,1930.25,2031.18,2264.88,600.20,605.74,32.95,0000 0000 0000 0000 000000
2015-12-13 11:04:00,0.08,5.45,0.00,17.64,22.14,25.92,14.80,50.61,1014.20,2049.00,1929.37,2030.76,2264.08,599.86,605.34,33.00,0000 0000 0000 0000 000000
2015-12-13 11:09:01,0.09,5.46,0.00,17.62,22.13,25.92,14.85,50.49,1014.19,2049.01,1928.51,2030.03,2263.51,600.15,605.85,33.05,0000 0000 0000 0000 000000
2015-12-13 11:14:03,0.08,5.46,0.00,17.62,22.12,25.86,14.82,50.54,1014.19,2049.01,1927.66,2029.44,2262.82,600.26,605.74,33.10,0000 0000 0000 0000 000000
2015-12-13 11:19:04,0.06,5.46,0.00,17.59,22.10,25.88,14.85,50.52,1014.19,2049.01,1926.65,2028.99,2262.03,599.77,605.45,33.15,0000 0000 0000 0000 000000
2015-12-13 11:24:05,0.11,5.47,0.00,17.57,22.09,25.90,14.88,50.61,1014.18,2049.03,1925.75,2028.21,2261.20,599.95,605.66,33.20,0000 0000 0000 0000 000000
2015-12-13 11:29:06,0.13,5.47,0.00,17.57,22.07,25.84,14.92,50.61,1014.18,2049.04,1924.61,2027.44,2260.30,600.26,605.98,33.26,0000 0000 0000 0000 000000
2015-12-13 11:34:08,0.18,5.48,0.00,17.54,22.05,25.83,14.85,50.47,1014.19,2049.07,1922.96,2026.24,2258.95,599.75,605.55,33.31,0000 0000 0000 0000 000000
2015-12-13 11:39:09,0.29,5.50,0.00,17.51,22.03,25.77,14.81,50.33,1014.19,2049.09,1920.21,2024.12,2256.57,599.84,605.87,33.36,0000 0000 0000 0000 000000
2015-12-13 11:44:10,0.25,5.51,0.00,17.48,22.01,25.76,15.01,50.67,1014.20,2049.16,1917.79,2022.27,2254.44,600.17,606.00,33.41,0000 0000 0000 0000 000000
2015-12-13 11:49:12,0.30,5.52,0.00,17.48,21.99,25.74,14.86,50.46,1014.21,2049.43,1915.19,2020.43,2252.43,600.12,606.06,33.46,0000 0000 0000 0000 000000
2015-12-13 11:54:13,0.26,5.54,0.00,17.43,21.96,25.69,14.83,50.46,1014.21,2049.54,1912.46,2018.55,2250.33,599.89,605.82,33.51,0000 0000 0000 0000 000000
2015-12-13 11:59:14,0.32,5.55,0.00,17.42,21.93,25.67,14.85,50.60,1014.25,2049.91,1909.71,2016.70,2248.27,599.90,606.01,33.56,0000 0000 0000 0000 000000
2015-12-13 12:04:15,0.26,5.57,0.00,17.41,21.91,25.63,14.92,50.58,1014.34,2049.97,1907.15,2014.85,2246.18,600.34,606.49,33.61,0000 0000 0000 0000 000000
2015-12-13 12:09:17,0.21,5.58,0.00,17.37,21.88,25.59,14.90,50.44,1014.33,2049.98,1904.86,2013.24,2244.43,600.16,606.38,33.66,0000 0000 0000 0000 000000
2015-12-13 12:14:18,0.14,5.59,0.00,17.36,21.86,25.61,14.83,50.38,1014.40,2049.99,1903.18,2012.01,2243.08,599.76,605.92,33.71,0000 0000 0000 0000 000000
2015-12-13 12:19:19,0.22,5.60,0.00,17.36,21.83,25.52,14.84,50.63,1014.50,2049.99,1901.20,2010.70,2241.75,599.87,606.22,33.76,0000 0000 0000 0000 000000
2015-12-13 12:24:21,0.24,5.61,0.00,17.30,21.80,25.52,14.87,50.71,1014.45,2050.00,1898.64,2009.01,2239.93,600.06,606.45,33.81,0000 0000 0000 0000 000000
2015-12-13 12:29:22,0.30,5.62,0.00,17.25,21.77,25.46,14.93,50.81,1014.51,2050.03,1895.70,2007.02,2237.90,600.13,606.73,33.86,0000 0000 0000 0000 000000
2015-12-13 12:34:23,0.32,5.64,0.00,17.24,21.74,25.46,14.82,50.63,1014.54,2050.04,1892.29,2004.66,2235.38,599.94,606.55,33.91,0000 0000 0000 0000 000000
2015-12-13 12:39:24,0.36,5.66,0.00,17.22,21.72,25.45,14.87,50.67,1014.31,2050.37,1889.14,2002.58,2233.10,600.11,606.65,33.96,0000 0000 0000 0000 000000
2015-12-13 12:44:26,0.35,5.68,0.00,17.19,21.69,25.43,14.93,50.65,1014.22,2050.85,1886.04,2000.51,2230.82,599.86,606.40,34.01,0000 0000 0000 0000 000000
2015-12-13 12:49:27,0.25,5.69,0.00,17.18,21.67,25.38,14.90,50.60,1014.21,2050.97,1883.49,1998.75,2228.86,599.69,606.19,34.06,0000 0000 0000 0000 000000
2015-12-13 12:54:29,0.20,5.71,0.00,17.16,21.64,25.34,14.90,50.63,1014.20,2050.98,1881.26,1997.23,2227.24,599.80,606.34,34.11,0000 0000 0000 0000 000000